カタログに戻る

THORAD DELTA 1 DEB

運用中LEO
NORAD 8785·DEBRIS·🇺🇸 United States

打ち上げ Nov 15, 1974 から Vandenberg Space Force Base

Loading…

次のパス (今後24時間)

TLE

最新Source: Space-Track

元期: Sep 13, 2026, 19:06 UTC

1 08785U 74089DM  26256.79637616  .00000617  00000-0  61232-2 0  9992
2 08785 101.0101   9.2227 0276820 248.4167 268.7112 12.13202692 91761

AllMySatでTHORAD DELTA 1 DEBをリアルタイム追跡

Download on the App Store